Weather Roundup
Issued by NWS Corpus Christi, TX

Home | Current Version | Previous Version | Text Only | Print | Product List | Glossary On
Versions: 1 2 3 4 5 6 7 8 9 10 11 12 13 14 15 16 17 18 19 20 21 22 23 24 25 26 27 28 29 30 31 32 33 34 35 36 37 38 39 40 41 42 43 44 45 46 47 48 49 50
000
ASUS44 KCRP 181110
HRRCRP

SOUTH TEXAS REGIONAL WEATHER ROUNDUP
NATIONAL WEATHER SERVICE CORPUS CHRISTI TX
500 AM CST MON DEC 18 2017


TXZ229>244-181200-
...CORPUS CHRISTI AREA OBSERVATIONS...

CITY           SKY/WX    TMP DP  RH WIND       PRES   REMARKS
CORPUS CHRISTI CLOUDY    54  54 100 N12       30.09F FOG
NAS CORPUS CHR CLOUDY    57  55  93 N10       30.08F FOG
ROCKPORT       CLOUDY    56  54  93 N8        30.08F
KINGSVILLE ARP DRIZZLE   55  55 100 N6        30.10F
KINGSVILLE NAS LGT RAIN  54  54 100 N8        30.09R FOG
ALICE          CLOUDY    53  52  96 N7        30.10S FOG
$$

...VICTORIA AREA OBSERVATIONS...

CITY           SKY/WX    TMP DP  RH WIND       PRES   REMARKS
PORT LAVACA    CLOUDY    55  53  92 N7        30.10S
VICTORIA       CLOUDY    55  52  89 N6        30.11S
BEEVILLE       CLOUDY    52  52  99 N7        30.11R FOG
PLEASANTON     CLOUDY    50  50 100 CALM      30.13R FOG
SAN ANTONIO    DRZL/FOG  50  49  96 CALM      30.12S VSB 1/4
$$

...LAREDO AREA OBSERVATIONS...

CITY           SKY/WX    TMP DP  RH WIND       PRES   REMARKS
LAREDO         CLOUDY    52  51  97 MISG      30.10F FOG
COTULLA        CLOUDY    51  49  92 E5        30.11S FOG
DEL RIO        CLOUDY    48  48 100 E7        30.09S FOG
MCALLEN        CLOUDY    58  55  90 N10       30.06F
HEBBRONVILLE   FOG       51  51  99 CALM      30.10S VSB 1
$$

...OTHER TEXAS OBSERVATIONS...

CITY           SKY/WX    TMP DP  RH WIND       PRES   REMARKS
BROWNSVILLE    CLOUDY    61  58  90 N3        30.07S
HOUSTON        MOCLDY    56  54  93 NW6       30.13R
COL. STATION   CLOUDY    52  52 100 E3        30.14R FOG
AUSTIN         FOG       50  49  96 CALM      30.13R VSB 3/4
WACO           CLOUDY    48  47  96 SE6       30.14F FOG
FORT WORTH     CLOUDY    50  48  93 CALM      30.14R FOG
WICHITA FALLS  FOG       36  36 100 NE3       30.13F VSB 1/4
LUBBOCK        CLEAR     32  23  69 NW6       30.08F
EL PASO        LGT RAIN  46  44  93 N9        30.07R
$$

...MARINE OBSERVATIONS...

STATION/POSITION TIME  SKY/WX   TEMP    WIND        PRES    VSBY  WAVE   SWELL
                                AIR SEA DIR/SP/G                  HT/PER HT/PER
                 (UTC)          (F)     (DEG/KT/KT) (MB)    (MI)  (FT/S) (FT/S)
PORT ARANSAS     NOT AVBL
BUOY 90 E PORT A 0950            72 71  100/  8/ 10 1018.3          5/ 8   5/ 8
BUOY 200 E PT IS 0950            76 76  150/ 12/ 14 1018.7          4/ 7   3/ 7
BUOY 15 E GALVES 0950            61 61   30/ 10/ 10 1019.3          3/ 8   2/ 8
$$




USA.gov is the U.S. government's official web portal to all federal, state and local government web resources and services.